Location: Lombard
(41.8800°N, 88.0080°W)
Time: 02:05:44
(UTC-06:00)

SR - All Passes

Search period start: 03 March 2024 00:00
Search period end: 13 March 2024 01:00
Orbit: 574 x 867 km, 66.7° (Epoch: 02 March)

Date Brightness Start Highest point End Pass type
(mag) Time Alt. Az. Time Alt. Az. Time Alt. Az.
03 Mar - 11:27:20 10° ESE 11:29:22 12° ESE 11:31:23 10° E daylight
03 Mar - 13:04:38 10° SSW 13:10:29 81° ESE 13:16:10 10° NNE daylight
03 Mar - 14:48:48 10° W 14:53:03 21° NW 14:57:11 10° N daylight
03 Mar - 20:05:51 10° NNE 20:07:24 11° NE 20:08:54 10° NE visible
03 Mar - 21:45:36 10° NNW 21:50:31 59° ENE 21:55:00 10° SE visible
03 Mar - 23:29:02 10° WNW 23:31:46 15° WSW 23:34:22 10° SW night (unlit)
04 Mar - 12:13:19 10° S 12:18:45 41° ESE 12:24:03 10° NE daylight
04 Mar - 13:55:28 10° WSW 14:00:46 35° NW 14:05:53 10° NNE daylight
04 Mar - 20:54:03 10° NNW 20:58:25 29° NE 21:02:27 10° ESE visible
04 Mar - 22:35:58 10° NW 22:40:20 34° WSW 22:44:23 10° S visible
05 Mar - 11:22:58 10° SSE 11:27:11 21° ESE 11:31:19 10° ENE daylight
05 Mar - 13:02:53 10° SW 13:08:41 64° WNW 13:14:17 10° NNE daylight
05 Mar - 14:48:42 10° WNW 14:51:39 14° NW 14:54:35 10° N daylight
05 Mar - 20:02:52 10° N 20:06:03 17° NE 20:09:05 10° E visible
05 Mar - 21:43:45 10° NNW 21:48:40 78° WSW 21:53:09 10° SSE visible
06 Mar - 12:11:00 10° SSW 12:16:48 68° ESE 12:22:25 10° NE daylight
06 Mar - 13:54:38 10° W 13:59:13 24° NW 14:03:38 10° N daylight
06 Mar - 20:51:57 10° NNW 20:56:45 48° NE 21:01:08 10° SE visible
06 Mar - 22:34:52 10° WNW 22:38:10 19° WSW 22:41:18 10° SSW visible
07 Mar - 11:19:54 10° S 11:25:06 34° ESE 11:30:10 10° NE daylight
07 Mar - 13:01:30 10° WSW 13:06:59 41° NW 13:12:15 10° NNE daylight
07 Mar - 20:00:29 10° N 20:04:34 25° NE 20:08:23 10° ESE visible
07 Mar - 21:42:06 10° NW 21:46:40 42° WSW 21:50:52 10° S visible
08 Mar - 10:29:56 10° SE 10:33:34 17° ESE 10:37:10 10° ENE daylight
08 Mar - 12:09:07 10° SW 12:14:57 76° WNW 12:20:35 10° NNE daylight
08 Mar - 13:54:18 10° WNW 13:57:46 16° NW 14:01:09 10° N daylight
08 Mar - 19:09:29 10° N 19:12:09 14° NE 19:14:42 10° ENE visible
08 Mar - 20:50:01 10° NNW 20:54:56 85° ENE 20:59:25 10° SSE visible
09 Mar - 11:17:25 10° SSW 11:23:07 57° ESE 11:28:38 10° NE daylight
09 Mar - 13:00:31 10° WSW 13:05:22 27° NW 13:10:03 10° N daylight
09 Mar - 19:58:18 10° NNW 20:02:56 40° NE 20:07:12 10° ESE visible
09 Mar - 21:40:48 10° NW 21:44:32 23° WSW 21:48:03 10° SSW visible
10 Mar - 11:26:33 10° SSE 11:31:26 29° ESE 11:36:14 10° NE daylight
10 Mar - 13:07:35 10° SW 13:13:12 48° NW 13:18:35 10° NNE daylight
10 Mar - 14:54:56 10° NW 14:56:26 11° NW 14:57:56 10° NNW daylight
10 Mar - 20:06:56 10° N 20:10:42 21° NE 20:14:14 10° E visible
10 Mar - 21:48:16 10° NW 21:52:58 53° WSW 21:57:17 10° S visible
11 Mar - 10:37:06 10° SE 10:39:58 14° ESE 10:42:48 10° ENE daylight
11 Mar - 12:15:22 10° SSW 12:21:13 89° WNW 12:26:51 10° NNE daylight
11 Mar - 13:59:59 10° W 14:03:52 18° NW 14:07:39 10° N daylight
11 Mar - 19:16:13 10° NNE 19:18:12 12° NE 19:20:08 10° ENE visible
11 Mar - 20:56:18 10° NNW 21:01:10 69° ENE 21:05:36 10° SE visible
11 Mar - 22:40:23 10° WNW 22:42:16 12° WSW 22:44:07 10° SW visible
12 Mar - 11:23:52 10° S 11:29:25 47° ESE 11:34:47 10° NE daylight
12 Mar - 13:06:27 10° WSW 13:11:32 31° NW 13:16:25 10° NNE daylight
12 Mar - 20:04:40 10° NNW 20:09:06 33° NE 20:13:12 10° ESE visible
12 Mar - 21:46:49 10° NW 21:50:52 28° WSW 21:54:39 10° S visible
